Regional Weather Roundup
Issued by NWS

Home | Current Version | Previous Version | Text Only | Print | Product List | Glossary On
Versions: 1 2 3 4 5 6 7 8 9 10 11 12 13 14 15 16 17 18 19 20 21 22 23 24 25 26 27 28 29 30 31 32 33 34 35 36 37 38 39 40 41 42 43 44 45 46 47 48 49 50
000
ASUS44 KBMX 290410
RWRAL

ALABAMA REGIONAL WEATHER ROUNDUP
NATIONAL WEATHER SERVICE BIRMINGHAM AL
1100 PM CDT THU JUL 28 2016

NOTE: "FAIR" INDICATES FEW OR NO CLOUDS BELOW 12,000 FEET
WITH NO SIGNIFICANT WEATHER AND/OR OBSTRUCTIONS TO VISIBILITY.

THE REMARK "TC" DENOTES TEMPERATURE IN DEGREES CELSIUS.

ALZ001>011-014-016>018-020-290500-
NORTH ALABAMA

CITY           SKY/WX    TMP DP  RH WIND       PRES   REMARKS
MUSCLE SHOALS  CLOUDY    74  71  91 CALM      29.99F
HUNTSVILLE     MOCLDY    74  70  87 CALM      30.00S
DECATUR        PTCLDY    74  72  93 SW3       30.00S
HALEYVILLE     FAIR      72  71  97 SW3       30.03S
GADSDEN        MOCLDY    75  73  93 CALM        N/A
$$

ALZ012-013-022-023-030>036-040>044-290500-
WEST CENTRAL ALABAMA

CITY           SKY/WX    TMP DP  RH WIND       PRES   REMARKS
TUSCALOOSA     CLEAR     76  75  97 SW3       30.00S
$$

ALZ015-024>027-033>036-040>044-290500-
CENTRAL ALABAMA

CITY           SKY/WX    TMP DP  RH WIND       PRES   REMARKS
BIRMINGHAM     PTCLDY    77  74  90 CALM      30.03F
MONTGOMERY     CLEAR     78  72  81 CALM      30.01F
SHELBY CO ARPT CLEAR     74  72  93 CALM      30.01F
MAXWELL AFB    CLEAR     76  73  92 S2        30.01R
GREENVILLE     NOT AVBL
$$

ALZ019-021-028-029-037-038-045>048-290500-
EAST CENTRAL ALABAMA

CITY           SKY/WX    TMP DP  RH WIND       PRES   REMARKS
ANNISTON       CLOUDY    75  70  84 W5        30.02S
ALEXANDER CITY PTCLDY    73  73 100 CALM      30.03S
AUBURN         CLEAR     78  70  76 SW5       30.05S
$$

ALZ051>064-290500-
SOUTHWEST ALABAMA

CITY           SKY/WX    TMP DP  RH WIND       PRES   REMARKS
MOBILE         PTCLDY    78  74  87 CALM      30.04S
BROOKLEY FIELD PTCLDY    79  76  90 CALM      30.04S
EVERGREEN      PTCLDY    76  72  87 CALM      30.04S
$$

ALZ049-050-065>069-290500-
SOUTHEAST ALABAMA

CITY           SKY/WX    TMP DP  RH WIND       PRES   REMARKS
DOTHAN         CLEAR     80  75  84 SW8       30.07F
OZARK          CLEAR     79  74  84 SW6       30.03F
TROY           CLEAR     76  73  91 CALM      30.04R
EUFAULA        FAIR      81  72  74 NW7       30.02S
$$



USA.gov is the U.S. government's official web portal to all federal, state and local government web resources and services.